Location: Unspecified
(0.0000°N, 0.0000°E)
Time: 01:08:26
(UTC+00:00)

deb r/b Ablestar - Pass Details

Date: 23 December 2025
Orbit: 815 x 921 km, 66.9° (Epoch: 13 January)

Event Time Altitude Azimuth Distance (km) Brightness Sun altitude
Rises 18:52:21 0° 216° (SW) 3,527 ? -12.1°
Reaches altitude 10° 18:55:01 10° 224° (SW) 2,595 ? -12.8°
Maximum altitude 19:00:32 37° 289° (WNW) 1,382 ? -14.0°
Drops below altitude 10° 19:06:05 10° 356° (N) 2,604 ? -15.3°
Sets 19:08:47 0° 4° (N) 3,541 ? -15.9°
